Location: Nitra
(0.0000°N, 18.0833°E)
Time: 00:06:22
(UTC+02:00)

SRMSAT - Visible Passes

Search period start: 07 June 2023 00:00
Search period end: 17 June 2023 00:00
Orbit: 848 x 865 km, 20.0° (Epoch: 05 June)

Date Brightness Start Highest point End Pass type
(mag) Time Alt. Az. Time Alt. Az. Time Alt. Az.
07 Jun ? 04:26:12 24° NNW 04:26:12 24° NNW 04:30:38 10° NE visible
07 Jun ? 06:13:29 10° NNW 06:15:49 12° N 06:18:10 10° NNE visible
08 Jun ? 04:13:40 21° N 04:13:40 21° N 04:17:12 10° NNE visible
08 Jun ? 06:00:47 10° NNW 06:02:42 11° N 06:04:38 10° NNE visible
08 Jun ? 20:39:19 10° SSW 20:39:22 10° SSW 20:39:22 10° SSW visible
09 Jun ? 04:01:07 18° N 04:01:07 18° N 04:03:46 10° NNE visible
09 Jun ? 05:48:07 10° NNW 05:49:36 11° N 05:51:05 10° N visible
09 Jun ? 20:25:48 10° SSW 20:27:08 12° S 20:27:08 12° S visible
10 Jun ? 03:48:34 15° NNE 03:48:34 15° NNE 03:50:17 10° NNE visible
10 Jun ? 05:35:33 10° NNW 05:36:30 10° N 05:37:28 10° N visible
10 Jun ? 20:12:18 10° SSW 20:14:58 14° S 20:14:58 14° S visible
11 Jun ? 03:36:02 12° NNE 03:36:02 12° NNE 03:36:49 10° NNE visible
11 Jun ? 19:58:49 10° SSW 20:02:17 16° SSE 20:02:51 15° SSE visible
12 Jun ? 19:45:21 10° SSW 19:49:08 17° SSE 19:50:49 15° SE visible
13 Jun ? 19:31:53 10° SSW 19:35:59 19° SSE 19:38:50 14° SE visible
13 Jun ? 21:19:51 10° SW 21:20:51 15° SW 21:20:51 15° SW visible
14 Jun ? 19:18:26 10° SSW 19:22:49 21° SSE 19:26:58 11° ESE visible
14 Jun ? 21:06:30 10° SW 21:08:59 25° SW 21:08:59 25° SW visible
15 Jun ? 06:17:51 10° NNW 06:21:16 15° NNE 06:24:40 10° NE visible
15 Jun ? 19:05:00 10° SW 19:09:38 23° SSE 19:14:15 10° ESE visible
15 Jun ? 20:53:11 10° WSW 20:57:11 41° SW 20:57:11 41° SW visible
16 Jun ? 04:17:48 10° N 04:17:57 10° N 04:18:07 10° N visible
16 Jun ? 06:04:22 10° NNW 06:08:06 17° NNE 06:11:50 10° NE visible
16 Jun ? 20:39:53 10° WSW 20:45:29 66° S 20:45:29 66° S visible
